AAR8122 RKPC-RKTN

Flight info

Callsign AAR8122
Flight time 0h 47m
Altitude 21000
Route AKPON1W AKPON Y571 ANROD Z83 TGU W526 MASTA UKBAT1
Aircraft A321/M-SDE3FGHIRWY/LB1

Departure

Time 2026-05-08 06:17
Airport Jeju International Airport (RKPC)

Arrival

Time 2026-05-08 07:04
Airport Daegu International Airport (RKTN)
Time Latitude Longitude Altitude Speed Heading
2026-05-08 06:04 33.50867 126.49127 70 ft 0 kts 327°
2026-05-08 06:09 33.50851 126.49141 66 ft 4 kts 321°
2026-05-08 06:09 33.50832 126.49163 68 ft 4 kts 302°
2026-05-08 06:09 33.50824 126.49189 69 ft 4 kts 248°
2026-05-08 06:09 33.50826 126.49195 70 ft 0 kts 237°
2026-05-08 06:11 33.50825 126.49193 69 ft 1 kts 237°
2026-05-08 06:11 33.50821 126.49185 68 ft 2 kts 239°
2026-05-08 06:12 33.50808 126.49158 71 ft 5 kts 239°
2026-05-08 06:12 33.50791 126.49117 73 ft 6 kts 253°
2026-05-08 06:12 33.50811 126.49069 66 ft 8 kts 321°
2026-05-08 06:12 33.50876 126.49032 71 ft 11 kts 354°
2026-05-08 06:13 33.50944 126.49083 72 ft 14 kts 56°
2026-05-08 06:13 33.51006 126.49200 70 ft 18 kts 57°
2026-05-08 06:13 33.51073 126.49326 65 ft 18 kts 57°
2026-05-08 06:13 33.51143 126.49458 64 ft 19 kts 58°
2026-05-08 06:14 33.51209 126.49596 64 ft 20 kts 59°
2026-05-08 06:14 33.51289 126.49752 64 ft 23 kts 58°
2026-05-08 06:14 33.51370 126.49823 59 ft 14 kts 356°
2026-05-08 06:14 33.51453 126.49768 56 ft 12 kts 326°
2026-05-08 06:15 33.51476 126.49726 61 ft 5 kts 255°
2026-05-08 06:15 33.51466 126.49702 53 ft 0 kts 238°
2026-05-08 06:16 33.51460 126.49691 54 ft 7 kts 238°
2026-05-08 06:16 33.51314 126.49406 62 ft 75 kts 238°
2026-05-08 06:16 33.50923 126.48652 83 ft 135 kts 238°
2026-05-08 06:17 33.49723 126.46338 880 ft 168 kts 242°
2026-05-08 06:17 33.49108 126.45141 1505 ft 171 kts 243°
2026-05-08 06:17 33.48454 126.43856 1763 ft 192 kts 244°
2026-05-08 06:18 33.47721 126.42413 1968 ft 213 kts 244°
2026-05-08 06:18 33.46905 126.40813 2121 ft 238 kts 243°
2026-05-08 06:18 33.46002 126.39046 2572 ft 256 kts 243°
2026-05-08 06:18 33.45055 126.37210 3307 ft 263 kts 243°
2026-05-08 06:19 33.44073 126.35326 3995 ft 270 kts 240°
2026-05-08 06:19 33.42694 126.33722 4635 ft 290 kts 211°
2026-05-08 06:19 33.40705 126.33151 5235 ft 303 kts 181°
2026-05-08 06:19 33.38586 126.33326 5962 ft 308 kts 173°
2026-05-08 06:20 33.36460 126.33762 6664 ft 312 kts 169°
2026-05-08 06:20 33.34326 126.34301 7360 ft 315 kts 166°
2026-05-08 06:20 33.32339 126.35401 8039 ft 318 kts 141°
2026-05-08 06:20 33.30862 126.37338 8712 ft 316 kts 116°
2026-05-08 06:21 33.30117 126.39771 9371 ft 311 kts 92°
2026-05-08 06:21 33.30170 126.42322 10001 ft 307 kts 77°
2026-05-08 06:21 33.30464 126.44906 10338 ft 324 kts 76°
2026-05-08 06:21 33.30783 126.47595 10886 ft 322 kts 77°
2026-05-08 06:22 33.31086 126.50220 11735 ft 311 kts 77°
2026-05-08 06:22 33.31378 126.52801 12242 ft 323 kts 78°
2026-05-08 06:22 33.31699 126.55539 12382 ft 342 kts 77°
2026-05-08 06:22 33.32268 126.58363 12510 ft 357 kts 66°
2026-05-08 06:23 33.33271 126.61132 12669 ft 368 kts 56°
2026-05-08 06:23 33.34653 126.63728 13075 ft 373 kts 51°
2026-05-08 06:23 33.36102 126.66332 13550 ft 380 kts 50°
2026-05-08 06:23 33.37569 126.68988 14079 ft 385 kts 51°
2026-05-08 06:24 33.39046 126.71680 14579 ft 389 kts 51°
2026-05-08 06:24 33.40537 126.74405 15094 ft 393 kts 51°
2026-05-08 06:24 33.42043 126.77157 15621 ft 397 kts 51°
2026-05-08 06:24 33.43564 126.79929 16146 ft 400 kts 51°
2026-05-08 06:25 33.45098 126.82725 16671 ft 404 kts 51°
2026-05-08 06:25 33.46649 126.85552 17167 ft 408 kts 51°
2026-05-08 06:25 33.48210 126.88403 17687 ft 412 kts 51°
2026-05-08 06:25 33.49787 126.91291 18173 ft 416 kts 51°
2026-05-08 06:26 33.51378 126.94206 18613 ft 420 kts 51°
2026-05-08 06:26 33.52987 126.97156 19008 ft 425 kts 51°
2026-05-08 06:26 33.54615 127.00133 19405 ft 430 kts 51°
2026-05-08 06:26 33.56240 127.03107 19780 ft 435 kts 51°
2026-05-08 06:27 33.57976 127.06146 20162 ft 436 kts 45°
2026-05-08 06:27 33.59936 127.08854 20529 ft 437 kts 41°
2026-05-08 06:27 33.61982 127.11583 20932 ft 442 kts 41°
2026-05-08 06:27 33.64047 127.14338 21057 ft 444 kts 41°
2026-05-08 06:28 33.66096 127.17084 21094 ft 440 kts 41°
2026-05-08 06:28 33.68132 127.19815 21089 ft 438 kts 41°
2026-05-08 06:28 33.70162 127.22536 21090 ft 438 kts 41°
2026-05-08 06:28 33.72195 127.25261 21084 ft 438 kts 41°
2026-05-08 06:29 33.74231 127.27993 21084 ft 439 kts 41°
2026-05-08 06:29 33.76268 127.30730 21088 ft 439 kts 41°
2026-05-08 06:29 33.78300 127.33468 21076 ft 438 kts 41°
2026-05-08 06:29 33.80328 127.36201 21080 ft 438 kts 41°
2026-05-08 06:30 33.82359 127.38940 21078 ft 438 kts 41°
2026-05-08 06:30 33.84387 127.41677 21075 ft 439 kts 41°
2026-05-08 06:30 33.86417 127.44416 21066 ft 439 kts 41°
2026-05-08 06:30 33.88449 127.47155 21071 ft 439 kts 41°
2026-05-08 06:31 33.90479 127.49895 21090 ft 439 kts 41°
2026-05-08 06:31 33.92510 127.52646 21087 ft 440 kts 41°
2026-05-08 06:31 33.94541 127.55400 21076 ft 440 kts 41°
2026-05-08 06:31 33.96570 127.58153 21082 ft 440 kts 41°
2026-05-08 06:32 33.98602 127.60909 21077 ft 440 kts 41°
2026-05-08 06:32 34.00635 127.63664 21073 ft 440 kts 41°
2026-05-08 06:32 34.02666 127.66424 21071 ft 440 kts 41°
2026-05-08 06:32 34.04697 127.69185 21091 ft 440 kts 40°
2026-05-08 06:33 34.06729 127.71949 21072 ft 440 kts 40°
2026-05-08 06:33 34.08762 127.74715 21066 ft 441 kts 40°
2026-05-08 06:33 34.10791 127.77481 21063 ft 441 kts 41°
2026-05-08 06:33 34.12822 127.80254 21059 ft 441 kts 40°
2026-05-08 06:34 34.14168 127.82088 21061 ft 441 kts 40°
2026-05-08 06:34 34.16201 127.84861 21056 ft 441 kts 40°
2026-05-08 06:34 34.18233 127.87636 21088 ft 441 kts 40°
2026-05-08 06:34 34.20953 127.91354 21073 ft 441 kts 40°
2026-05-08 06:35 34.22297 127.93195 21073 ft 441 kts 40°
2026-05-08 06:35 34.24327 127.95975 21062 ft 441 kts 40°
2026-05-08 06:35 34.27018 127.99662 21053 ft 441 kts 40°
2026-05-08 06:35 34.28390 128.01541 21052 ft 441 kts 40°
2026-05-08 06:36 34.30419 128.04328 21051 ft 441 kts 40°
2026-05-08 06:36 34.32447 128.07118 21069 ft 442 kts 40°
2026-05-08 06:36 34.34476 128.09910 21065 ft 442 kts 40°
2026-05-08 06:36 34.36502 128.12700 21059 ft 442 kts 40°
2026-05-08 06:37 34.38529 128.15494 21047 ft 442 kts 40°
2026-05-08 06:37 34.40556 128.18289 21043 ft 442 kts 40°
2026-05-08 06:37 34.42583 128.21084 21031 ft 442 kts 40°
2026-05-08 06:37 34.44609 128.23881 21031 ft 442 kts 40°
2026-05-08 06:38 34.46633 128.26678 21020 ft 442 kts 40°
2026-05-08 06:38 34.48659 128.29479 21022 ft 442 kts 40°
2026-05-08 06:38 34.50682 128.32281 21016 ft 442 kts 40°
2026-05-08 06:38 34.52707 128.35087 21020 ft 442 kts 40°
2026-05-08 06:39 34.54732 128.37895 21020 ft 442 kts 40°
2026-05-08 06:39 34.56758 128.40706 21022 ft 442 kts 40°
2026-05-08 06:39 34.58783 128.43512 21057 ft 441 kts 39°
2026-05-08 06:39 34.61004 128.45998 21050 ft 428 kts 26°
2026-05-08 06:40 34.63485 128.47860 21041 ft 413 kts 15°
2026-05-08 06:40 34.66113 128.49084 21031 ft 398 kts
2026-05-08 06:40 34.68780 128.49697 21025 ft 384 kts 354°
2026-05-08 06:40 34.71408 128.49784 21019 ft 375 kts 348°
2026-05-08 06:41 34.74021 128.49767 21011 ft 376 kts 348°
2026-05-08 06:41 34.76633 128.49759 21034 ft 376 kts 349°
2026-05-08 06:41 34.79251 128.49758 21030 ft 376 kts 348°
2026-05-08 06:41 34.81875 128.49792 21021 ft 379 kts 350°
2026-05-08 06:42 34.84517 128.49964 21019 ft 381 kts 353°
2026-05-08 06:42 34.87131 128.50230 21017 ft 383 kts 354°
2026-05-08 06:42 34.89788 128.50545 21013 ft 384 kts 354°
2026-05-08 06:42 34.92439 128.50863 21009 ft 383 kts 354°
2026-05-08 06:43 34.95091 128.51170 21006 ft 382 kts 354°
2026-05-08 06:43 34.97735 128.51462 21012 ft 381 kts 353°
2026-05-08 06:43 35.00374 128.51741 21006 ft 380 kts 353°
2026-05-08 06:43 35.03008 128.52011 21003 ft 380 kts 353°
2026-05-08 06:44 35.05642 128.52275 21001 ft 380 kts 353°
2026-05-08 06:44 35.08276 128.52533 20999 ft 380 kts 352°
2026-05-08 06:44 35.10908 128.52788 20991 ft 380 kts 352°
2026-05-08 06:44 35.13541 128.53046 20989 ft 379 kts 352°
2026-05-08 06:45 35.16171 128.53293 21023 ft 379 kts 352°
2026-05-08 06:45 35.18804 128.53527 21011 ft 379 kts 352°
2026-05-08 06:45 35.21434 128.53755 21008 ft 379 kts 352°
2026-05-08 06:45 35.24059 128.53979 21005 ft 378 kts 352°
2026-05-08 06:46 35.26683 128.54206 21001 ft 378 kts 352°
2026-05-08 06:46 35.29305 128.54435 20998 ft 378 kts 352°
2026-05-08 06:46 35.31923 128.54666 21000 ft 378 kts 352°
2026-05-08 06:46 35.34544 128.54899 21036 ft 378 kts 352°
2026-05-08 06:47 35.37158 128.55133 20980 ft 375 kts 352°
2026-05-08 06:47 35.39746 128.55368 20910 ft 370 kts 352°
2026-05-08 06:47 35.42289 128.55601 20659 ft 362 kts 352°
2026-05-08 06:47 35.44780 128.55831 20316 ft 357 kts 352°
2026-05-08 06:48 35.47244 128.56054 19933 ft 353 kts 352°
2026-05-08 06:48 35.49655 128.56275 19624 ft 337 kts 352°
2026-05-08 06:48 35.51937 128.56496 19094 ft 323 kts 352°
2026-05-08 06:48 35.54144 128.56700 18458 ft 313 kts 352°
2026-05-08 06:49 35.56292 128.56890 17637 ft 307 kts 352°
2026-05-08 06:49 35.58406 128.57071 16813 ft 301 kts 352°
2026-05-08 06:49 35.60475 128.57250 16009 ft 295 kts 353°
2026-05-08 06:49 35.62510 128.57428 15219 ft 291 kts 354°
2026-05-08 06:50 35.64502 128.57607 14514 ft 284 kts 354°
2026-05-08 06:50 35.66451 128.57786 13808 ft 279 kts 355°
2026-05-08 06:50 35.68388 128.57960 13427 ft 277 kts 355°
2026-05-08 06:50 35.70299 128.58133 13087 ft 274 kts 355°
2026-05-08 06:51 35.72192 128.58302 12712 ft 272 kts 355°
2026-05-08 06:51 35.74074 128.58469 12359 ft 270 kts 355°
2026-05-08 06:51 35.75943 128.58634 11996 ft 268 kts 355°
2026-05-08 06:51 35.77802 128.58797 11655 ft 267 kts 355°
2026-05-08 06:52 35.79631 128.59198 11496 ft 269 kts
2026-05-08 06:52 35.81336 128.60234 11197 ft 280 kts 24°
2026-05-08 06:52 35.82786 128.61926 10812 ft 296 kts 42°
2026-05-08 06:52 35.84024 128.63960 10493 ft 296 kts 42°
2026-05-08 06:53 35.85258 128.65974 10185 ft 293 kts 42°
2026-05-08 06:53 35.86489 128.67966 9854 ft 291 kts 43°
2026-05-08 06:53 35.87714 128.69944 9507 ft 290 kts 43°
2026-05-08 06:53 35.88935 128.71913 9126 ft 289 kts 44°
2026-05-08 06:54 35.90154 128.73874 8718 ft 288 kts 44°
2026-05-08 06:54 35.91375 128.75840 8326 ft 288 kts 45°
2026-05-08 06:54 35.92413 128.77979 8000 ft 295 kts 60°
2026-05-08 06:54 35.92990 128.80431 7559 ft 303 kts 76°
2026-05-08 06:55 35.93153 128.83038 7178 ft 304 kts 82°
2026-05-08 06:55 35.93289 128.85636 6834 ft 302 kts 81°
2026-05-08 06:55 35.93428 128.88218 6526 ft 300 kts 81°
2026-05-08 06:55 35.93509 128.90747 6402 ft 293 kts 92°
2026-05-08 06:56 35.92928 128.93084 6271 ft 288 kts 121°
2026-05-08 06:56 35.91599 128.94864 6054 ft 280 kts 151°
2026-05-08 06:56 35.89832 128.95751 5989 ft 272 kts 173°
2026-05-08 06:56 35.87983 128.96250 5737 ft 270 kts 174°
2026-05-08 06:57 35.86201 128.96464 5521 ft 247 kts 191°
2026-05-08 06:57 35.84562 128.96103 5239 ft 231 kts 207°
2026-05-08 06:57 35.83163 128.95334 4993 ft 213 kts 220°
2026-05-08 06:57 35.81952 128.94328 4571 ft 209 kts 225°
2026-05-08 06:58 35.80759 128.93320 4324 ft 208 kts 224°
2026-05-08 06:58 35.79561 128.92307 4290 ft 209 kts 225°
2026-05-08 06:58 35.78398 128.91250 4296 ft 205 kts 234°
2026-05-08 06:58 35.77645 128.89806 4308 ft 198 kts 256°
2026-05-08 06:59 35.77452 128.88233 4137 ft 183 kts 277°
2026-05-08 06:59 35.77774 128.86746 3704 ft 178 kts 298°
2026-05-08 06:59 35.78435 128.85524 3506 ft 165 kts 305°
2026-05-08 06:59 35.79077 128.84384 3380 ft 160 kts 304°
2026-05-08 07:00 35.79704 128.83259 3256 ft 159 kts 305°
2026-05-08 07:00 35.80327 128.82138 3021 ft 158 kts 305°
2026-05-08 07:00 35.80936 128.81046 2800 ft 156 kts 304°
2026-05-08 07:00 35.81548 128.79946 2593 ft 155 kts 303°
2026-05-08 07:01 35.82139 128.78883 2395 ft 147 kts 303°
2026-05-08 07:01 35.82709 128.77856 2200 ft 144 kts 303°
2026-05-08 07:01 35.83272 128.76839 2006 ft 144 kts 304°
2026-05-08 07:01 35.83835 128.75821 1815 ft 143 kts 305°
2026-05-08 07:02 35.84396 128.74810 1629 ft 142 kts 305°
2026-05-08 07:02 35.84955 128.73805 1436 ft 142 kts 304°
2026-05-08 07:02 35.85511 128.72805 1250 ft 141 kts 304°
2026-05-08 07:02 35.86062 128.71813 1065 ft 140 kts 303°
2026-05-08 07:03 35.86618 128.70808 888 ft 144 kts 303°
2026-05-08 07:03 35.87184 128.69778 662 ft 146 kts 306°
2026-05-08 07:03 35.87752 128.68748 468 ft 144 kts 307°
2026-05-08 07:03 35.88312 128.67743 288 ft 140 kts 307°
2026-05-08 07:04 35.88860 128.66757 123 ft 138 kts 306°
2026-05-08 07:04 35.89329 128.65912 114 ft 97 kts 304°
2026-05-08 07:04 35.89613 128.65399 116 ft 51 kts 304°
2026-05-08 07:04 35.89782 128.65096 116 ft 36 kts 304°
2026-05-08 07:05 35.89914 128.64858 117 ft 31 kts 304°
2026-05-08 07:05 35.90008 128.64687 113 ft 14 kts 304°
2026-05-08 07:05 35.90005 128.64590 112 ft 12 kts 219°
2026-05-08 07:05 35.89957 128.64509 115 ft 12 kts 269°
2026-05-08 07:06 35.89990 128.64414 112 ft 13 kts 304°